Location: Grossmotten
(48.5500°N, 15.3833°E)
Time: 13:29:04
(UTC+00:00)

Cosmos 1515 Rocket - Pass Details

Date: 15 November 2019
Orbit: 605 x 631 km, 82.5° (Epoch: 15 December)

Event Time Altitude Azimuth Distance (km) Brightness Sun altitude
Rises 05:28:33 0° 343° (NNW) 2,879 6.6 -6.5°
Reaches altitude 10° 05:30:54 10° 335° (NNW) 1,968 5.7 -6.1°
Maximum altitude 05:34:52 36° 269° (W) 974 4.1 -5.5°
Drops below altitude 10° 05:38:49 10° 203° (SSW) 1,951 6.1 -4.9°
Sets 05:41:08 0° 194° (SSW) 2,850 7.1 -4.5°
